Weather History for KPKD - January, 2012

Change the Weather History Date:

Monday, January 30, 2012

  Actual Average (KSAZ) Record (KSAZ)
Temperature  
Mean Temperature 22 °F -  
Max Temperature 30 °F 20 °F - (-1)
Min Temperature 14 °F 4 °F - (-1)
Degree Days  
Heating Degree Days 43    
Moisture  
Dew Point 16 °F    
Average Humidity 79    
Maximum Humidity 88    
Minimum Humidity 66    
Precipitation  
Precipitation 0.00 in - - ()
Sea Level Pressure  
Sea Level Pressure 29.71 in    
Wind  
Wind Speed 9 mph (SE)    
Max Wind Speed 15 mph    
Max Gust Speed -    
Visibility 8 miles    
Events Snow    
Averages and records for this station are not official NWS values.
T = Trace of Precipitation, MM = Missing Value Source: NWS Daily Summary

Daily Weather History Graph

Daily Weather History Graph

Search for Another Location

Airport or City:

Trip Planner

Search our weather history database for the weather conditions in past years. The results will help you decide how hot, cold, wet, or windy it might be!

Date:

Astronomy

Jan. 30, 2012 Rise Set
Actual Time 7:47 AM CST 5:19 PM CST
Civil Twilight 7:15 AM CST 5:52 PM CST
Nautical Twilight 6:38 AM CST 6:29 PM CST
Astronomical Twilight 6:02 AM CST 7:04 PM CST
Moon 10:38 AM CST (1/30) 12:36 AM CST (1/30)
Length of Visible Light 10h 37m
Length of Day
9h 31m
Waxing Crescent, 46% of the Moon is Illuminated
Jan 30
Waxing Crescent
Jan 30
First Quarter
Feb 7
Full
Feb 14
Last Quarter
Feb 21
New

Hourly Weather History & Observations

Time (CST) Temp. Windchill Dew Point Humidity Pressure Visibility Wind Dir Wind Speed Gust Speed Precip Events Conditions
12:02 AM 14.0 °F 0.5 °F 10.4 °F 86% 29.80 in 2.5 mi SE 11.5 mph - 0.00 in Snow Light Snow
12:12 AM 15.8 °F 2.7 °F 10.4 °F 79% 29.79 in 1.5 mi SE 11.5 mph - 0.00 in Snow Light Snow
12:33 AM 15.8 °F 0.9 °F 10.4 °F 79% 29.77 in 2.5 mi SE 15.0 mph - 0.00 in Snow Light Snow
12:44 AM 15.8 °F 2.7 °F 10.4 °F 79% 29.76 in 3.0 mi SE 11.5 mph - 0.00 in Snow Light Snow
12:53 AM 15.1 °F 4.2 °F 10.9 °F 84% 29.85 in 4.0 mi ESE 8.1 mph - 0.00 in Snow Light Snow
1:53 AM 15.1 °F 5.2 °F 10.9 °F 84% 29.82 in 10.0 mi ESE 6.9 mph - 0.00 in   Overcast
2:53 AM 16.0 °F 2.3 °F 12.0 °F 84% 29.78 in 10.0 mi SE 12.7 mph - N/A   Overcast
3:53 AM 16.0 °F 2.9 °F 12.0 °F 84% 29.75 in 10.0 mi SE 11.5 mph - N/A   Overcast
4:53 AM 16.0 °F 2.9 °F 12.0 °F 84% 29.73 in 10.0 mi SSE 11.5 mph - N/A   Scattered Clouds
5:53 AM 15.1 °F 6.4 °F 12.0 °F 88% 29.73 in 10.0 mi SE 5.8 mph - N/A   Clear
6:53 AM 16.0 °F 10.4 °F 12.9 °F 88% 29.72 in 10.0 mi ESE 3.5 mph - N/A   Clear
7:53 AM 15.1 °F 3.3 °F 12.0 °F 88% 29.70 in 10.0 mi SE 9.2 mph - N/A   Clear
8:53 AM 16.0 °F 7.4 °F 12.9 °F 88% 29.70 in 6.0 mi ESE 5.8 mph - N/A   Clear
9:53 AM 18.0 °F 8.7 °F 14.0 °F 84% 29.70 in 10.0 mi SE 6.9 mph - N/A   Clear
10:53 AM 19.9 °F 12.1 °F 15.1 °F 81% 29.69 in 10.0 mi SE 5.8 mph - N/A   Clear
11:53 AM 23.0 °F 15.8 °F 17.1 °F 78% 29.68 in 10.0 mi SSE 5.8 mph - N/A   Clear
12:53 PM 27.0 °F 23.0 °F 19.0 °F 72% 29.66 in 9.0 mi ESE 3.5 mph - N/A   Scattered Clouds
1:53 PM 28.9 °F 22.8 °F 19.9 °F 69% 29.65 in 10.0 mi SE 5.8 mph - N/A   Clear
2:53 PM 30.0 °F 24.1 °F 19.9 °F 66% 29.65 in 10.0 mi SE 5.8 mph - N/A   Mostly Cloudy
3:53 PM 30.0 °F 25.2 °F 21.0 °F 69% 29.66 in 10.0 mi SE 4.6 mph - N/A   Overcast
4:53 PM 30.0 °F 24.1 °F 21.9 °F 72% 29.67 in 10.0 mi SE 5.8 mph - N/A   Overcast
5:53 PM 30.9 °F 25.2 °F 23.0 °F 72% 29.66 in 10.0 mi SE 5.8 mph - 0.00 in   Overcast
6:53 PM 30.0 °F 23.2 °F 23.0 °F 75% 29.65 in 10.0 mi SE 6.9 mph - 0.00 in   Overcast
7:53 PM 30.9 °F 24.3 °F 23.0 °F 72% 29.66 in 9.0 mi South 6.9 mph - N/A   Overcast
8:53 PM 30.0 °F 22.4 °F 23.0 °F 75% 29.65 in 10.0 mi SSE 8.1 mph - 0.00 in   Overcast
9:53 PM 30.0 °F - 23.0 °F 75% 29.65 in 10.0 mi Calm Calm - N/A   Overcast
10:53 PM 28.9 °F - 24.1 °F 82% 29.63 in 10.0 mi Calm Calm - N/A   Overcast
11:53 PM 28.9 °F 21.9 °F 23.0 °F 78% 29.62 in 10.0 mi SSE 6.9 mph - N/A   Overcast